SCP
0 0 0 0 0 0 0 0 0 0 0 0 0 0 0 0 0 0 0 0 0 0 0 0 0 0 0 0 0 0 0 0 0 0 0 0 0 0 0 0 0 0 0
0 0 0 0 0 0 0 0 0 0 0 0 0 0 0 0 0 0 0 0 0 0 0 0 0 0 0 0 0 0 0 0 0 0 0 0 0 0 0 0 0 0 0
0 0 0 0 0 0 0 0 0 0 0 0 0 0 0 0 0 0 0 0 0 0 0 0 0 0 0 0 0 0 0 0 0 0 0 0 0 0 0 0 0 0 0
0 0 0 0 0 0 0 0 0 0 0 0 0 0 0 0 0 0 0 0 0 0 0 0 0 0 0 0 0 0 0 0 0 0 0 0 0 0 0 0 0 0 0
0 0 0 0 0 0 0 0 0 0 0 0 0 0 0 0 0 0 0 0 0 0 0 0 0 0 0 0 0 0 0 0 0 0 0 0 0 0 0 0 0 0 0
0 0 0 0 0 0 0 0 0 0 0 0 0 0 0 0 0 0 0 0 0 0 0 0 0 0 0 0 0 0 0 0 0 0 0 0 0 0 0 0 0 0 0
0 0 0 0 0 0 0 0 0 0 0 0 0 0 0 0 0 0 0 0 0 0 0 0 0 0 0 0 0 0 0 0 0 0 0 0 0 0 0 0 0 0 0
0 0 0 0 0 0 0 0 0 0 0 0 0 0 0 0 0 0 0 0 0 0 0 0 0 0 0 0 0 0 0 0 0 0 0 0 0 0 0 0 0 0 0
0 0 0 0 0 0 0 0 0 0 0 0 0 0 0 0 0 0 0 0 0 0 0 0 0 0 0 0 0 0 0 0 0 0 0 0 0 0 0 0 0 0 0
0 0 0 0 0 0 0 0 0 0 0 0 0 0 0 0 0 0 0 0 0 0 0 0 0 0 0 0 0 0 0 0 0 0 0 0 0 0 0 0 0 0 0
0 0 0 0 0 0 0 0 0 0 0 0 0 0 0 0 0 0 0 0 0 0 0 0 0 0 0 0 0 0 0 0 0 0 0 0 0 0 0 0 0 0 0
0 0 0 0 0 0 0 0 0 0 0 0 0 0 0 0 0 0 0 0 0 0 0 0 0 0 0 0 0 0 0 0 0 0 0 0 0 0 0 0 0 0 0
0 0 0 0 0 0 0 0 0 0 0 0 0 0 0 0 0 0 0 0 0 0 0 0 0 0 0 0 0 0 0 0 0 0 0 0 0 0 0 0 0 0 0
0 0 0 0 0 0 0 0 0 0 0 0 0 0 0 0 0 0 0 0 0 0 0 0 0 0 0 0 0 0 0 0 0 0 0 0 0 0 0 0 0 0 0
0 0 0 0 0 0 0 0 0 0 0 0 0 0 0 0 0 0 0 0 0 0 0 0 0 0 0 0 0 0 0 0 0 0 0 0 0 0 0 0 0 0 0
0 0 0 0 0 0 0 0 0 0 0 0 0 0 0 0 0 0 0 0 0 0 0 0 0 0 0 0 0 0 0 0 0 0 0 0 0 0 0 0 0 0 0
0 0 0 0 0 0 0 0 0 0 0 0 0 0 0 0 0 0 0 0 0 0 0 0 0 0 0 0 0 0 0 0 0 0 0 0 0 0 0 0 0 0 0
0 0 0 0 0 0 0 0 0 0 0 0 0 0 0 0 0 0 0 0 0 0 0 0 0 0 0 0 0 0 0 0 0 0 0 0 0 0 0 0 0 0 0
0 0 0 0 0 0 0 0 0 0 0 0 0 0 0 0 0 0 0 0 0 0 0 0 0 0 0 0 0 0 0 0 0 0 0 0 0 0 0 0 0 0 0
0 0 0 0 0 0 0 0 0 0 0 0 0 0 0 0 0 0 0 0 0 0 0 0 0 0 0 0 0 0 0 0 0 0 0 0 0 0 0 0 0 0 0
0 0 0 0 0 0 0 0 0 0 0 0 0 0 0 0 0 0 0 0 0 0 0 0 0 0 0 0 0 0 0 0 0 0 0 0 0 0 0 0 0 0 0
0 0 0 0 0 0 0 0 0 0 0 0 0 0 0 0 0 0 0 0 0 0 0 0 0 0 0 0 0 0 0 0 0 0 0 0 0 0 0 0 0 0 0
0 0 0 0 0 0 0 0 0 0 0 0 0 0 0 0 0 0 0 0 0 0 0 0 0 0 0 0 0 0 0 0 0 0 0 0 0 0 0 0 0 0 0
0 0 0 0 0 0 0 0 0 0 0 0 0 0 0 0 0 0 0 0 0 0 0 0 0 0 0 0 0 0 0 0 0 0 0 0 0 0 0 0 0 0 0
0 0 0 0 0 0 0 0 0 0 0 0 0 0 0 0 0 0 0 0 0 0 0 0 0 0 0 0 0 0 0 0 0 0 0 0 0 0 0 0 0 0 0
0 0 0 0 0 0 0 0 0 0 0 0 0 0 0 0 0 0 0 0 0 0 0 0 0 0 0 0 0 0 0 0 0 0 0 0 0 0 0 0 0 0 0
Wind_Speed
3 3 4 4 4 4 4 5 5 5 5 6 6 6 6 6 6 5 6 6 7 7 6 6 7 6 4 4 4 4 4 4 4 2 1 1 0 2 3 3 4 5 5
3 3 4 5 4 5 5 6 6 6 6 6 6 7 7 7 6 7 8 8 7 8 8 7 8 6 7 5 5 5 4 4 4 4 1 1 1 2 3 4 4 4 5
3 4 5 5 5 6 6 6 6 6 7 7 7 7 8 8 8 8 8 8 9 9 9 9 9 8 8 6 7 6 5 4 3 3 2 1 1 2 3 4 5 5 5
4 4 5 6 6 6 7 7 7 7 7 8 8 8 8 8 9 9 8 9 9 9 9 9 9 9 9 9 8 8 6 5 4 4 3 2 2 2 3 4 4 4 4
4 5 6 6 6 6 7 7 7 7 8 7 8 9 9 8 9 9 9 9 9 9 9 9 10 12 13 10 8 8 8 6 5 4 4 3 3 3 4 4 5 5 4
5 6 7 6 6 7 7 7 7 8 8 8 9 9 10 9 11 13 11 9 9 9 9 9 9 11 13 14 16 14 12 9 8 6 5 5 5 4 4 5 5 6 4
6 7 7 7 7 8 8 7 8 8 8 8 9 9 10 11 14 15 16 10 10 9 10 9 9 9 10 9 12 15 15 15 13 8 7 7 6 6 6 7 7 6 4
6 7 7 7 8 8 7 8 8 7 8 8 9 10 10 12 14 14 15 11 10 10 10 10 10 10 9 8 9 9 10 11 12 9 8 8 7 6 7 7 7 6 5
7 7 7 7 8 8 8 9 8 7 8 8 8 10 10 12 13 13 12 7 8 10 10 10 11 11 12 12 10 9 9 8 10 12 10 9 9 9 7 5 7 7 5
7 7 7 7 8 8 9 9 8 7 9 9 9 9 10 11 12 13 11 6 8 8 8 9 12 13 13 13 11 10 10 9 8 8 8 8 7 8 10 8 8 8 6
7 7 7 7 7 8 8 7 8 8 8 8 10 9 9 10 11 12 10 6 7 7 7 7 7 12 14 14 12 10 10 8 7 7 7 6 5 5 6 6 6 6 7
6 7 8 8 7 7 7 8 7 7 8 8 8 9 7 7 8 9 10 9 9 8 7 6 6 10 12 12 10 10 10 9 5 5 5 6 6 6 6 6 6 6 4
6 7 7 8 7 7 7 8 7 6 6 7 6 7 7 6 5 9 10 9 10 8 7 9 8 9 9 8 10 10 9 7 6 7 7 6 6 6 5 5 4 4 4
6 7 7 7 8 7 6 6 6 6 6 6 6 7 7 6 5 4 4 4 6 6 6 7 8 7 6 5 5 7 6 6 7 7 6 5 4 4 5 5 5 5 4
6 7 7 7 7 7 7 6 7 7 7 8 7 6 7 7 7 6 5 4 3 4 3 3 3 3 4 4 4 5 5 6 6 5 5 5 5 5 4 5 5 5 5
6 6 6 6 6 6 7 8 8 10 11 12 13 11 8 10 12 10 9 9 8 6 4 3 4 4 5 5 6 5 5 6 6 6 6 6 6 6 5 5 5 6 6
6 6 6 6 6 7 6 7 9 9 8 9 10 10 11 11 11 9 8 7 5 5 4 4 4 5 5 5 6 6 6 6 6 6 6 6 6 6 6 6 6 6 6
6 7 7 6 6 6 7 7 7 7 8 7 6 8 8 9 9 8 6 3 3 4 4 4 4 4 5 5 6 5 5 5 6 6 6 6 6 6 6 6 6 7 7
5 5 5 6 6 6 6 6 6 7 7 7 6 6 6 6 6 6 4 3 4 4 5 5 4 4 4 5 5 5 6 6 6 6 6 7 6 6 6 6 6 8 7
5 8 8 6 6 6 6 6 6 6 6 6 6 5 4 3 3 3 3 4 4 5 5 5 4 4 4 4 5 5 5 5 7 6 6 6 6 7 7 8 7 7 7
5 6 8 6 5 6 6 6 6 6 6 6 6 6 5 4 4 4 3 4 4 5 5 5 4 4 5 5 5 6 7 6 6 6 6 6 7 7 7 7 7 7 6
4 4 5 5 5 6 6 5 5 5 6 6 6 5 6 3 3 3 3 3 4 4 4 4 4 4 5 5 6 6 6 6 6 7 7 7 7 7 7 7 7 7 7
4 5 5 5 5 6 6 5 5 5 5 5 5 5 4 3 3 3 3 3 3 3 3 4 4 4 4 5 5 6 7 7 7 7 7 7 7 7 7 8 10 9 8
4 4 5 5 5 5 5 5 5 5 5 5 5 4 4 4 3 4 3 3 3 2 1 2 4 5 6 5 5 5 6 6 7 7 10 8 8 8 8 8 9 10 9
3 4 4 4 5 5 5 5 5 5 5 5 4 4 4 4 3 3 3 2 3 2 1 1 2 3 5 6 6 5 6 7 7 6 7 7 9 9 9 10 9 10 9
3 3 3 3 4 4 4 5 5 5 4 5 4 4 4 4 4 3 3 2 2 2 1 0 0 2 3 4 5 5 6 6 7 7 6 7 8 8 10 8 11 10 11
Wind_Direction
284 284 287 286 288 287 278 274 274 274 273 271 272 274 274 272 269 263 261 261 255 256 252 243 245 241 236 234 231 231 226 220 242 261 259 300 231 143 120 122 122 129 134
279 284 284 286 289 286 279 277 275 274 273 270 271 272 272 270 263 258 262 263 256 256 254 248 248 243 235 232 227 228 227 220 224 250 254 243 217 167 147 131 123 121 118
283 286 288 286 282 279 278 279 278 275 277 276 271 269 270 269 267 262 257 258 255 253 251 247 247 240 237 230 225 225 225 224 217 231 246 221 205 162 150 130 124 117 116
284 283 280 277 274 275 277 278 277 275 275 275 273 270 269 270 269 265 260 257 256 255 251 249 247 239 236 231 226 224 220 218 214 218 225 220 204 173 164 155 146 134 126
281 278 274 276 278 279 280 279 278 276 275 272 275 274 271 267 262 258 255 256 253 254 253 250 250 246 241 232 226 217 211 211 209 211 213 212 204 186 183 168 159 142 125
275 275 278 281 283 282 282 281 280 279 278 276 274 273 272 268 265 263 261 259 254 252 253 251 252 256 254 244 234 221 207 204 203 204 206 212 212 203 189 175 162 160 161
276 279 282 283 284 283 285 287 283 281 279 279 276 273 271 269 267 267 267 262 254 250 248 247 251 250 242 241 238 229 218 212 202 196 205 209 206 203 192 189 181 175 162
280 283 283 283 284 286 286 284 282 280 279 279 279 277 274 273 269 266 267 264 257 250 244 242 244 249 244 236 236 231 222 218 212 207 210 211 208 203 201 196 177 150 122
279 280 281 282 284 287 286 285 283 282 283 280 277 277 275 275 271 266 264 261 255 253 247 242 239 242 239 230 228 228 225 223 218 212 208 208 206 201 193 182 173 165 160
273 276 281 281 280 282 282 283 283 281 281 284 282 278 274 274 273 269 264 254 254 254 250 244 238 236 233 224 222 220 220 218 207 202 205 208 208 206 197 197 186 178 163
270 279 284 282 280 278 279 280 284 286 286 284 284 282 276 271 274 272 264 244 245 249 248 244 238 231 230 223 216 218 218 206 201 196 195 196 196 199 199 200 194 186 176
274 281 285 286 285 287 283 288 287 285 288 288 287 289 282 274 268 273 269 252 239 241 246 245 240 230 226 221 216 218 211 198 194 191 191 193 195 199 198 193 192 191 182
282 286 289 293 289 285 283 288 293 287 283 285 285 287 290 285 275 270 274 268 252 239 243 243 239 230 222 219 219 209 196 195 188 191 195 197 197 195 182 172 172 169 156
279 287 292 296 298 297 288 280 281 283 283 284 283 283 287 288 283 282 278 274 265 249 247 247 239 229 215 210 201 199 196 195 191 192 192 188 174 172 176 168 164 165 160
278 286 292 290 292 297 294 282 275 269 260 266 276 273 278 285 280 274 273 270 259 252 246 233 216 203 200 198 194 190 188 188 194 189 179 173 171 171 173 169 162 165 171
279 288 289 293 296 295 299 303 281 263 270 260 254 254 261 259 274 283 278 267 257 242 224 221 216 210 204 199 193 188 187 189 189 182 176 174 172 173 170 168 170 172 176
264 279 288 289 292 295 298 302 307 307 290 276 268 263 256 267 273 275 276 272 251 212 218 229 220 210 204 198 194 189 191 190 183 180 179 177 173 171 170 172 177 179 180
265 276 280 282 286 289 292 293 292 297 305 306 293 277 273 272 274 276 271 251 229 210 225 230 224 212 203 198 196 193 187 181 180 181 181 179 175 174 176 176 180 184 181
269 277 281 283 284 285 288 290 290 290 289 293 300 301 290 282 276 268 240 225 235 231 227 227 224 216 205 198 194 189 186 183 183 180 180 179 179 180 183 181 179 185 184
267 280 288 288 291 294 294 294 295 295 295 296 297 298 304 300 293 278 236 232 238 238 231 227 221 215 207 199 193 188 185 183 182 183 182 181 183 187 188 184 178 180 189
271 286 296 296 290 291 293 295 295 295 296 298 295 289 286 279 281 284 275 250 240 238 232 224 216 211 207 198 194 193 192 189 185 184 182 181 183 186 188 184 180 182 184
266 279 287 289 293 295 295 293 292 295 301 303 304 305 299 281 279 284 281 270 257 241 231 222 217 211 204 201 196 192 194 191 187 185 183 181 183 186 183 182 181 181 184
261 277 286 290 294 297 299 298 299 302 307 310 310 311 313 303 295 291 291 286 274 259 234 219 218 214 206 204 200 195 195 194 190 186 181 180 182 184 182 183 184 181 185
259 272 284 294 301 302 303 306 307 311 315 314 316 318 318 312 307 307 307 303 296 284 244 214 212 213 210 206 201 201 202 195 187 189 188 183 182 183 183 184 184 184 184
261 272 283 292 299 302 306 309 313 318 321 319 322 327 328 325 320 319 321 325 323 317 296 238 213 208 209 208 202 201 198 193 190 187 186 185 184 183 182 183 180 180 180
264 276 286 294 301 304 309 312 314 319 323 325 327 331 334 334 332 333 336 342 345 347 355 358 210 210 208 209 204 193 186 188 188 187 184 182 183 183 182 183 182 181 181